Location: Unspecified
(0.0000°N, 0.0000°E)
Time: 19:14:40
(UTC+02:00)

Ariane H10+ - Visible Passes

Search period start: 27 September 2016 00:00
Search period end: 07 October 2016 00:00
Orbit: 311 x 31375 km, 7.1° (Epoch: 27 September)

Date Brightness Start Highest point End Pass type
(mag) Time Alt. Az. Time Alt. Az. Time Alt. Az.
27 Sep 7.5 07:07:17 11° W 09:06:49 77° WNW 15:35:33 10° ESE visible
28 Sep 8.4 01:26:18 18° E 01:26:18 18° E 08:56:13 10° E visible
29 Sep 7.3 04:54:49 59° WNW 05:06:36 77° N 13:13:23 10° E visible
01 Oct 7.8 02:42:16 47° ENE 02:42:16 47° ENE 10:41:52 10° E visible
01 Oct 3.4 20:23:59 10° WSW 20:29:51 45° S 20:31:43 14° ESE visible
02 Oct 7.8 06:10:43 28° WNW 09:12:37 86° NNW 14:35:07 10° ESE visible
04 Oct 7.4 03:58:04 75° N 03:58:11 75° N 12:10:31 10° E visible
04 Oct 5.6 21:47:03 10° WSW 21:47:06 10° WSW 21:47:06 10° WSW visible
06 Oct 8.3 01:45:20 28° ENE 01:45:20 28° ENE 09:30:11 10° E visible
